Location: Unspecified
(41.4057°N, 2.1753°E)
Time: 03:44:12
(UTC+02:00)

ISS - Visible Passes

Search period start: 27 May 2015 00:00
Search period end: 06 June 2015 00:00
Orbit: 399 x 404 km, 51.6° (Epoch: 26 May)

Date Brightness Start Highest point End Pass type
(mag) Time Alt. Az. Time Alt. Az. Time Alt. Az.
27 May -0.7 02:16:34 21° NNE 02:16:34 21° NNE 02:18:11 10° NE visible
27 May -0.3 03:50:43 10° NW 03:52:31 14° N 03:54:20 10° NNE visible
27 May -0.4 05:27:27 10° NNW 05:29:52 19° NNE 05:32:19 10° ENE visible
28 May -0.3 01:24:44 12° NE 01:24:44 12° NE 01:25:05 10° NE visible
28 May -0.3 02:57:16 11° NW 02:59:00 15° N 03:01:03 10° NNE visible
28 May -0.3 04:34:20 10° NNW 04:36:23 15° N 04:38:27 10° NE visible
29 May -0.6 02:05:12 19° NNW 02:05:29 19° NNW 02:07:54 10° NNE visible
29 May -0.1 03:41:02 10° NNW 03:42:51 14° N 03:44:39 10° NE visible
29 May -1.0 05:17:11 10° NW 05:20:03 28° NNE 05:22:56 10° E visible
30 May -0.9 01:12:41 23° N 01:12:41 23° N 01:14:48 10° NE visible
30 May -0.1 02:47:30 10° NW 02:49:16 14° N 02:51:03 10° NNE visible
30 May -0.5 04:24:05 10° NNW 04:26:36 20° NNE 04:29:08 10° ENE visible
30 May -1.3 22:39:34 10° SSW 22:45:45 - ENE 22:40:20 15° S visible
31 May -1.9 00:17:38 30° WNW 00:18:37 38° NNW 00:21:41 10° NE visible
31 May -0.1 01:53:43 10° NW 01:55:42 15° N 01:57:40 10° NNE visible
31 May -0.1 03:30:57 10° NNW 03:33:05 16° NNE 03:35:14 10° NE visible
31 May -2.3 05:06:54 10° NW 05:10:05 49° NNE 05:13:16 10° ESE visible
31 May -3.1 23:22:03 10° WSW 23:25:16 69° NNW 23:28:31 10° NE visible
01 Jun -0.4 00:59:49 10° WNW 01:02:09 18° NNW 01:04:28 10° NNE visible
01 Jun 0.0 02:37:40 10° NNW 02:39:31 14° N 02:41:22 10° NE visible
01 Jun -1.3 04:13:45 10° NW 04:16:42 30° NNE 04:19:39 10° E visible
01 Jun -3.4 22:28:49 10° SW 22:32:00 61° SE 22:35:13 10° ENE visible
02 Jun -0.8 00:05:57 10° WNW 00:08:38 23° NNW 00:11:20 10° NE visible
02 Jun 0.1 01:44:10 10° NNW 01:45:55 14° N 01:47:40 10° NNE visible
02 Jun -0.6 03:20:37 10° NNW 03:23:13 21° NNE 03:25:50 10° ENE visible
02 Jun -3.5 04:56:40 10° WNW 04:59:56 75° SW 05:03:11 10° SE visible
02 Jun -1.5 23:12:09 10° W 23:15:10 34° NNW 23:18:12 10° NE visible
03 Jun 0.0 00:50:24 10° NW 00:52:18 14° N 00:54:13 10° NNE visible
03 Jun -0.2 02:27:28 10° NNW 02:29:40 17° NNE 02:31:55 10° ENE visible
03 Jun -2.7 04:03:24 10° NW 04:06:37 57° NNE 04:09:50 10° ESE visible
03 Jun -1.7 05:40:36 10° W 05:42:46 16° SW 05:44:51 10° S visible
03 Jun -2.7 22:18:34 10° WSW 22:21:47 59° NNW 22:25:00 10° NE visible
03 Jun -0.2 23:56:28 10° WNW 23:58:43 17° NNW 00:00:56 10° NNE visible
04 Jun 0.0 01:34:11 10° NNW 01:36:05 14° N 01:37:59 10° NE visible
04 Jun -1.6 03:10:13 10° NW 03:13:13 34° NNE 03:16:14 10° E visible
04 Jun -2.6 04:46:40 10° WNW 04:49:36 31° SW 04:52:31 10° SSE visible
04 Jun -0.6 23:02:32 10° WNW 23:05:09 22° NNW 23:07:45 10° NNE visible
05 Jun 0.0 00:40:42 10° NNW 00:42:27 14° N 00:44:12 10° NNE visible
05 Jun -0.9 02:17:03 10° NW 02:19:43 23° NNE 02:20:39 20° NE visible
05 Jun -1.2 22:08:41 10° W 22:11:38 31° NNW 22:14:35 10° NE visible
05 Jun -0.1 23:46:57 10° NW 23:48:48 14° N 23:50:39 10° NNE visible
